Regional Weather Roundup
Issued by NWS

Home | Current Version | Previous Version | Graphics & Text | Print | Product List | Glossary On
Versions: 1 2 3 4 5 6 7 8 9 10 11 12 13 14 15 16 17 18 19 20 21 22 23 24 25 26 27 28 29 30 31 32 33 34 35 36 37 38 39 40 41 42 43 44 45 46 47 48 49 50
793
ASUS43 KDMX 201901
RWRIA

WEATHER ROUNDUP FOR IOWA
NATIONAL WEATHER SERVICE DES MOINES IA
100 PM CST MON FEB 20 2017

NOTE: "FAIR" INDICATES FEW OR NO CLOUDS BELOW 12,000 FEET WITH NO
SIGNIFICANT WEATHER AND/OR OBSTRUCTIONS TO VISIBILITY.

* - THESE STATIONS ARE NOT NWS STATIONS...THUS NOT UNDER NWS
QUALITY CONTROL.  THEY ALSO DO NOT REPORT WEATHER SUCH
AS PRECIPITATION OR FOG.

IAZ001>003-012>014-020>022-031>034-043>046-202000-
   NORTHWEST IOWA

CITY           SKY/WX    TMP DP  RH WIND       PRES   REMARKS
CARROLL *      CLOUDY    59  59 100 S18       29.71F
CHEROKEE *     LGT RAIN  57  57 100 SW13      29.70S
DENISON *      CLOUDY    57  57 100 S14G22    29.71R FOG
LE MARS *      CLOUDY    59  57  94 S10       29.69S FOG
SHELDON *      PTSUNNY   57  57 100 SW16      29.67S FOG
SIOUX CITY     CLOUDY    61  57  87 SW14      29.71S
SPENCER        LGT RAIN  55  54  96 S12       29.69F FOG
STORM LAKE *   CLOUDY    57  55  94 S15       29.70F FOG
$$

IAZ055>058-069>071-079>083-090>094-202000-
   SOUTHWEST IOWA

CITY           SKY/WX    TMP DP  RH WIND       PRES   REMARKS
ATLANTIC *     CLOUDY    59  57  94 S16G22    29.75R
CLARINDA *     CLOUDY    61  59  94 SW13G21     N/A
COUNCIL BLFS * CLOUDY    59  59 100 SW10      29.75S
CRESTON *      CLOUDY    57  57 100 S20G26    29.78F
HARLAN  *      CLOUDY    59  57  94 SW16G22   29.78R FOG
LAMONI         CLOUDY    59  57  93 S15G23    29.79F
RED OAK *      CLOUDY    61  57  88 S15G22    29.77R
SHENANDOAH *   CLOUDY    61  59  94 S12       29.76F
$$

IAZ047>049-059>061-072>074-084-202000-
   CENTRAL IOWA

CITY           SKY/WX    TMP DP  RH WIND       PRES   REMARKS
AMES           LGT RAIN  58  58 100 S12       29.75F FOG
ANKENY *       CLOUDY    59  57  94 S13       29.78F FOG
BOONE *        CLOUDY    55  55 100 S12       29.74F FOG
CHARITON *     CLOUDY    59  57  94 S16       29.79F
DES MOINES     LGT RAIN  60  57  89 S16       29.77F FOG
GRINNELL*      HVY RAIN  57  55  92 S14       29.82S
KNOXVILLE *    CLOUDY    59  57  94 S12G18    29.78F
MARSHALLTOWN   LGT RAIN  57  56  96 S16       29.78S FOG
NEWTON *       CLOUDY    57  57 100 S15G22    29.79F FOG
PELLA *        DRIZZLE   59  57  94 S10       29.81F
PERRY *        LGT RAIN  58  57  97 S16       29.74F
$$

IAZ004>006-015-016-023>025-035-036-202000-
   NORTH CENTRAL IOWA

CITY           SKY/WX    TMP DP  RH WIND       PRES   REMARKS
ALGONA *       CLOUDY    55  55 100 S15       29.71F FOG
CLARION *      CLOUDY    54  54 100 SE13      29.73F FOG
ESTHERVILLE    LGT RAIN  53  53 100 S15       29.68F FOG
FORT DODGE *   CLOUDY    55  54  94 S10G17    29.73F
MASON CITY     LGT RAIN  50  49  96 S16G26    29.75F FOG
FOREST CITY *  RAIN      50  50 100 S15       29.74F
IOWA FALLS *   DRIZZLE   55  54  97 SE12      29.76F
$$

IAZ007>011-017>019-026>030-037>042-050>054-066-202000-
   NORTHEAST IOWA

CITY           SKY/WX    TMP DP  RH WIND       PRES   REMARKS
CEDAR RAPIDS   LGT RAIN  59  54  83 SE10      29.83F
CHARLES CITY * LGT RAIN  52  52 100 SE15      29.78F VSB 1
CLINTON *      CLOUDY    64  53  67 SE18      29.91F
DECORAH *      CLOUDY    52  50  93 SE16      29.82F FOG
DUBUQUE        CLOUDY    57  50  77 S20       29.88F
MONTICELLO *   CLOUDY    59  52  77 SE18      29.86F
OELWEIN *      CLOUDY    54  54 100 SE15      29.81F FOG
WATERLOO       LGT RAIN  55  53  93 SE15      29.78F FOG
$$

IAZ064-065-067-068-078-202000-
   EAST CENTRAL IOWA

CITY           SKY/WX    TMP DP  RH WIND       PRES   REMARKS
DAVENPORT      CLOUDY    64  52  64 SE17      29.90F
IOWA CITY      LGT RAIN  63  53  70 SE13G21   29.86F
MUSCATINE *    CLOUDY    66  52  59 SE10G18   29.87F
QUAD CITIES    CLOUDY    68  52  56 S14G26    29.89F
$$

IAZ062-063-075>077-085>089-095>099-202000-
   SOUTHEAST IOWA

CITY           SKY/WX    TMP DP  RH WIND       PRES   REMARKS
BURLINGTON     CLOUDY    67  53  61 S13       29.88F
FAIRFIELD *    CLOUDY    64  54  68 SE13G20   29.82F
KEOKUK *       CLOUDY    70  52  52 S12G24    29.86F
OTTUMWA        LGT RAIN  61  58  90 S9        29.81F FOG
WASHINGTON *   CLOUDY    63  55  77 SE16G22   29.85F
$$

ABBREVIATIONS USED IN REMARKS
   TC - TEMPERATURES IN CELSIUS
  WCI - WIND CHILL INDEX
   HX - HEAT INDEX
  VSB - VISIBILITY
$$





USA.gov is the U.S. government's official web portal to all federal, state and local government web resources and services.